Location: Aucun
(42.9667°N, 0.1667°W)
Time: 22:18:05
(UTC+00:00)

SL-16 R/B - Pass Details

Date: 17 February 2020
Orbit: 843 x 847 km, 71.0° (Epoch: 05 April)

Event Time Altitude Azimuth Distance (km) Brightness Sun altitude
Exits shadow 04:42:10 65° 291° (WNW) 929 2.1 -25.1°
Maximum altitude 04:42:15 65° 297° (WNW) 929 2.1 -25.1°
Drops below altitude 10° 04:47:54 10° 19° (NNE) 2,474 4.9 -24.1°
Sets 04:50:23 0° 23° (NNE) 3,412 5.7 -23.6°
